User: anonymous   Login
Location: Baix
(44.7118°N, 4.7648°E)
Time: 06:42:13
(UTC+00:00)
Language:

deb Explorer IX - Orbit

View from above orbital plane
View from above orbital plane
View from above satellite
View from above satellite

Ground track
Ground track

The orbit data is extracted from the following two-line orbital elements,

1    85U 61004C   20331.16253972 +.00002021 +00000-0 +43516-3 0  9995
2    85 038.7685 275.6862 0393556 138.6527 224.4720 14.21220011954105
Epoch (UTC): 26 November 2020 03:54:03
Eccentricity: 0.0393556
inclination: 38.7685°
perigee height: 538 km
apogee height: 1104 km
right ascension of ascending node: 275.6862°
argument of perigee: 138.6527°
revolutions per day: 14.21220011
mean anomaly at epoch: 224.4720°
orbit number at epoch: 95410

The dashed part of the orbit path shows where the satellite is in the earth's shadow,  

DLR